This is the latest recevied weather packets stored in our database for station/object EA7KZ-10. If no packets are shown the sender has not sent any weather packets the latest 10 day(s).
| Time | Temp. | Humidity | Pressure | Rain* | Wind** | Luminosity | Snow |
|---|---|---|---|---|---|---|---|
| 1777613395 | 17.22° C | 57% | 1019.7 hPa | - | - | - | - |
| 1777612194 | 17.78° C | 56% | 1019.6 hPa | - | - | - | - |
| 1777611595 | 17.78° C | 56% | 1019.5 hPa | - | - | - | - |
| 1777610994 | 17.78° C | 56% | 1019.5 hPa | - | - | - | - |
| 1777610395 | 17.78° C | 56% | 1019.6 hPa | - | - | - | - |
| 1777609795 | 17.78° C | 56% | 1019.5 hPa | - | - | - | - |
| 1777609195 | 17.78° C | 56% | 1019.4 hPa | - | - | - | - |
| 1777608595 | 17.78° C | 56% | 1019.2 hPa | - | - | - | - |
| 1777607995 | 17.78° C | 55% | 1019.1 hPa | - | - | - | - |
| 1777607394 | 17.78° C | 55% | 1019.1 hPa | - | - | - | - |
| 1777606195 | 18.33° C | 55% | 1018.8 hPa | - | - | - | - |
| 1777605594 | 18.33° C | 55% | 1018.8 hPa | - | - | - | - |
| 1777604996 | 18.33° C | 55% | 1018.8 hPa | - | - | - | - |
| 1777604394 | 18.33° C | 55% | 1018.6 hPa | - | - | - | - |
| 1777603794 | 18.33° C | 55% | 1018.6 hPa | - | - | - | - |
| 1777603195 | 18.33° C | 55% | 1018.7 hPa | - | - | - | - |
| 1777602595 | 18.33° C | 55% | 1018.5 hPa | - | - | - | - |
| 1777601995 | 18.33° C | 54% | 1018.5 hPa | - | - | - | - |
| 1777600195 | 18.89° C | 55% | 1018.3 hPa | - | - | - | - |
| 1777586395 | 20.56° C | 54% | 1018.5 hPa | - | - | - | - |
| 1777585795 | 20.56° C | 54% | 1018.5 hPa | - | - | - | - |
| 1777585195 | 20.56° C | 55% | 1018.5 hPa | - | - | - | - |
| 1777583995 | 20.56° C | 54% | 1018.3 hPa | - | - | - | - |
| 1777582795 | 21.11° C | 53% | 1018 hPa | - | - | - | - |
| 1777582195 | 20.56° C | 53% | 1017.9 hPa | - | - | - | - |
* Rain since midnight (hover to see other rain measurements)
** Current wind speed in m/s (hover to see current wind gust speed)